Location: Betra
(48.4113°N, 8.6634°E)
Time: 19:38:26
(UTC+00:00)

BREEZE-M DEB (TANK) - Pass Details

Date: 23 May 2024
Orbit: 290 x 16913 km, 49.4° (Epoch: 16 June)

Event Time Altitude Azimuth Distance (km) Brightness Sun altitude
Exits shadow 00:06:53 52° 192° (SSW) 775 3.1 -20.2°
Drops below altitude 10° 00:14:03 10° 124° (SE) 3,903 6.9 -20.0°
Sets 00:20:21 0° 122° (ESE) 6,683 8.1 -19.7°
